Tracking 19903 objects as of 16-Oct-2019
HD Live streaming from Space Station
objects crossing your sky now

COSMOS 1375 DEB

Track COSMOS 1375 DEB now!
10-day predictions


NORAD ID: 17806
Int'l Code: 1982-055AY
Perigee: 920.4 km
Apogee: 1,018.3 km
Inclination: 65.8 °
Period: 104.3 minutes
Semi major axis: 7340 km
RCS: 0.0072 m2 (small)
Launch date: June 6, 1982
Source: Commonwealth of Independent States (former USSR) (CIS)
Launch site: PLESETSK MISSILE AND SPACE COMPLEX (PKMTR)

Note: This is SATELLITE DEBRIS
aabbcc
Your satellite tracking list
Your tracking list is empty




NASA's NSSDC Master Catalog

Two Line Element Set (TLE):
1 17806U 82055AY  19288.67743264 -.00000088 +00000-0 -60947-5 0  9998
2 17806 065.8346 032.1227 0066746 290.2848 137.5711 13.80473610710382
Source of the keplerian elements: AFSPC